Wind_Speed
7 7 7 7 6 6 6 7 7 7 7 8 8 9 11 12 13 15 16 17 17 17 18 19 18 18 17 17 16 14 14 13 12 13 14 15 15 14 11 10 10 10 11 12 12 11 9 9 10 10 10 10 9 8 7 6 5 5 5 5 5 5 6 7 7 6 6 6 6 6 6 6 7 7 6 6 6 6 7 7 8 8 8 8 7
7 7 7 7 6 6 7 7 7 7 7 8 9 11 12 13 15 16 17 18 18 18 18 18 17 16 16 16 16 14 13 12 11 11 11 12 12 12 11 10 10 10 10 12 13 13 11 10 11 12 12 11 11 10 9 9 8 6 6 6 6 6 6 7 7 7 7 7 7 6 7 7 7 7 7 7 7 7 7 8 8 9 9 9 8
7 7 6 6 6 7 8 8 7 8 8 9 11 12 13 15 16 18 19 20 19 18 18 16 15 15 15 16 16 14 12 12 11 10 9 9 9 10 10 10 10 10 10 11 13 14 12 12 12 13 12 12 12 12 12 12 11 10 9 7 7 7 7 7 7 7 7 8 8 8 8 8 8 8 8 8 8 8 8 8 9 9 9 9 9
8 7 6 7 7 8 9 9 9 10 9 10 12 13 15 16 18 20 21 21 18 16 15 13 14 15 15 14 14 14 13 12 11 8 7 6 7 8 8 9 9 9 10 10 11 13 14 13 13 12 12 13 13 14 14 14 13 13 12 10 9 8 8 8 8 8 8 8 9 9 9 9 9 9 9 9 9 9 9 9 9 10 10 10 10
8 8 7 8 8 10 11 11 12 12 11 12 14 15 16 18 20 21 21 19 16 14 13 12 13 14 14 13 13 14 14 12 10 7 5 4 4 5 6 8 8 9 9 9 10 12 14 15 14 13 13 13 14 15 15 15 15 15 15 12 11 10 10 10 10 10 10 9 10 10 11 11 11 11 10 10 10 10 10 10 10 10 10 10 10
10 9 8 8 10 11 11 13 13 14 14 15 15 16 17 19 20 21 20 17 13 12 11 12 13 13 13 13 14 14 13 11 9 7 5 3 2 3 5 7 8 8 9 9 10 11 13 15 15 14 14 15 16 16 16 16 16 16 16 15 14 13 13 12 12 12 12 11 11 11 11 12 12 12 12 12 11 11 11 11 11 11 11 11 11
11 10 9 9 10 11 12 13 14 15 16 17 17 17 19 20 21 20 19 17 13 11 11 11 12 12 12 13 14 14 13 10 8 6 5 4 2 2 3 4 7 9 9 9 10 11 13 14 14 14 14 15 16 17 17 17 17 17 16 16 16 16 15 15 14 14 14 13 13 12 12 13 13 14 14 14 13 13 12 12 12 12 12 12 12
11 11 11 10 10 12 14 14 14 16 17 18 18 18 19 21 20 19 18 17 15 14 12 10 11 12 11 12 13 13 12 10 8 6 5 4 2 3 2 3 5 7 9 11 11 11 13 14 14 14 15 15 16 17 18 18 18 17 17 16 17 17 17 16 16 16 16 16 15 14 14 14 15 15 15 15 15 15 14 14 14 14 13 14 14
11 11 11 11 11 13 16 16 15 16 17 18 18 18 20 20 20 18 17 18 18 17 15 12 11 12 12 12 11 11 10 10 9 7 6 4 3 3 4 4 3 4 7 10 12 12 13 15 15 15 15 15 16 16 17 18 18 18 17 17 18 18 18 18 18 18 18 18 17 17 16 16 16 17 16 16 16 16 16 16 15 15 15 15 15
12 11 11 12 12 14 16 16 16 16 18 18 18 19 20 20 19 19 18 18 18 17 17 15 13 13 14 13 11 10 9 9 9 7 6 5 4 4 4 4 3 3 4 7 11 13 13 14 16 17 16 16 16 16 17 18 19 19 19 19 19 19 20 19 19 19 19 19 19 20 20 18 18 18 18 18 18 18 17 17 17 17 16 16 16
13 13 12 12 13 14 15 16 16 17 17 17 19 20 19 19 19 19 18 17 17 17 17 16 14 13 15 15 12 10 9 9 9 8 6 6 6 5 4 5 4 3 4 5 7 10 12 14 16 17 16 17 17 17 18 19 20 21 21 21 20 20 21 20 20 20 20 20 21 22 22 21 21 20 21 21 20 20 19 18 18 18 18 18 18
14 14 13 13 15 15 15 16 17 17 16 17 20 20 19 18 19 18 17 16 16 16 16 15 14 13 14 15 13 10 9 9 8 7 7 8 8 6 5 6 5 4 4 5 6 7 9 12 14 15 15 17 19 19 19 20 22 22 22 23 22 22 22 21 21 21 22 23 24 25 24 23 23 23 23 23 22 22 21 20 20 20 20 20 20
15 14 14 14 15 15 15 16 17 17 18 19 19 18 18 18 18 17 16 15 15 15 15 14 13 13 13 14 14 12 10 9 8 7 8 9 8 7 6 6 5 5 4 5 6 6 6 8 10 12 14 16 17 19 20 22 23 24 24 24 25 25 25 25 24 24 25 26 26 26 25 24 25 25 24 24 23 23 23 23 23 22 21 22 22
14 13 12 12 13 14 14 14 15 16 17 17 16 16 16 17 17 16 15 14 13 13 13 12 12 12 13 14 15 13 10 10 10 9 9 8 8 7 6 6 6 5 5 5 6 7 7 7 8 10 12 13 14 15 18 21 22 24 25 26 26 27 28 28 29 29 28 28 26 26 27 26 25 26 26 25 24 24 25 25 25 24 23 23 23
12 11 10 10 11 12 12 13 13 13 14 14 13 13 14 15 15 14 13 12 12 12 11 11 11 12 13 13 14 12 11 11 10 9 10 10 9 8 6 7 7 7 6 6 6 7 8 9 10 11 12 13 13 14 16 18 21 23 24 25 26 27 28 29 30 31 30 29 27 27 28 27 26 27 27 27 27 26 27 27 27 27 25 24 24
10 9 8 8 8 9 8 9 9 9 10 10 10 11 12 13 13 13 13 12 12 11 10 9 9 10 12 12 12 11 9 10 9 9 11 9 9 8 7 7 8 7 7 7 7 8 8 9 10 11 12 12 13 15 16 18 20 22 23 24 25 25 26 27 28 28 29 29 29 29 29 29 28 28 29 29 29 29 29 29 28 28 27 26 26
7 6 6 5 4 3 3 4 5 5 6 7 8 9 10 11 12 12 12 11 10 9 9 8 8 8 10 10 10 8 6 8 10 10 9 7 9 10 9 8 8 8 8 8 8 8 9 10 10 11 12 12 13 14 15 16 18 20 22 23 24 25 26 26 26 26 26 27 28 29 31 31 31 30 31 31 31 31 31 30 30 29 29 29 28
7 5 4 3 2 2 3 4 5 6 7 7 8 9 9 10 11 11 11 11 9 8 8 8 8 8 8 9 9 8 8 8 10 11 10 9 10 10 10 10 10 10 10 10 10 10 10 11 11 12 13 13 14 14 15 16 17 18 20 21 22 23 24 25 26 26 25 25 26 27 28 30 32 32 32 32 32 32 32 32 32 31 31 31 31
8 7 6 5 5 6 7 7 8 8 8 7 8 8 9 9 10 11 11 11 9 8 8 8 7 7 6 7 7 9 9 7 9 11 11 11 11 9 8 10 12 14 13 13 12 11 12 12 13 13 14 15 15 16 17 17 18 18 19 20 21 22 22 23 24 25 25 26 26 26 26 27 30 32 33 33 33 33 33 32 33 33 33 33 32
8 7 7 7 7 8 9 10 10 9 9 9 9 9 9 9 10 10 10 10 9 8 8 8 7 6 6 5 5 6 7 7 9 10 11 12 12 9 8 12 17 17 16 15 14 14 14 14 15 15 16 16 17 17 18 19 19 20 20 20 21 22 23 23 24 24 25 25 26 27 27 27 29 31 32 33 34 34 34 34 34 35 36 36 35
6 6 6 6 7 8 10 11 11 12 11 11 11 11 10 10 10 10 9 9 8 8 8 8 7 7 6 5 5 5 6 6 7 7 9 11 11 11 12 15 17 16 17 19 18 17 17 17 17 17 18 18 19 19 19 19 20 21 21 21 21 22 23 24 24 25 25 25 26 27 27 28 30 31 32 33 34 35 35 35 35 36 36 37 37
5 4 4 4 5 7 9 11 12 14 14 14 14 13 12 11 10 9 8 7 7 7 8 8 8 7 7 7 7 7 7 7 7 7 8 9 10 12 13 14 14 15 19 21 20 20 20 19 19 19 19 20 20 21 21 21 21 22 22 22 23 23 23 24 25 25 26 26 27 27 28 29 30 31 32 33 34 34 35 35 36 36 36 37 38
4 3 3 3 4 6 8 10 12 14 15 15 15 14 13 11 10 9 8 7 6 7 7 8 8 8 9 9 9 9 9 9 10 10 10 11 11 12 13 14 14 16 18 18 19 21 22 21 21 20 20 20 21 22 22 23 23 23 24 24 25 25 25 25 25 26 27 27 28 28 29 29 30 31 32 33 34 34 35 36 36 37 37 37 38
3 2 1 2 4 6 8 10 11 13 15 15 15 15 13 12 11 10 9 8 8 8 8 9 9 9 10 10 11 11 10 11 12 13 13 13 13 12 13 15 14 14 16 17 18 20 21 22 22 21 21 21 21 22 22 23 24 24 24 25 25 26 27 27 27 27 28 28 28 29 29 30 31 32 32 33 33 34 34 35 36 37 37 38 38
2 1 2 4 5 7 8 10 12 13 14 16 16 16 14 12 11 11 10 10 9 9 9 9 9 9 10 11 12 12 12 12 13 14 14 14 14 14 14 14 14 16 18 18 17 17 18 21 23 23 24 24 24 24 24 25 25 24 24 25 26 26 26 27 28 29 29 30 30 30 30 31 31 32 32 32 32 32 33 34 35 36 37 38 39
5 5 6 7 8 9 10 11 13 14 15 16 17 17 16 13 12 12 12 11 10 10 9 8 8 9 10 11 12 12 12 12 12 12 13 14 14 15 15 15 16 18 20 21 19 17 17 19 22 25 26 26 27 26 25 25 26 25 25 25 26 27 27 27 28 29 30 31 31 31 31 32 32 33 33 33 33 32 32 32 33 34 35 37 39
8 8 8 8 9 10 11 12 14 16 16 17 17 18 17 15 13 12 13 12 11 11 10 10 9 9 10 10 10 11 12 11 10 10 12 13 14 15 16 17 19 20 21 23 24 21 16 15 20 25 24 23 25 26 25 24 24 25 25 26 26 26 27 28 29 29 30 31 32 32 32 32 33 33 34 35 35 34 34 33 33 33 34 35 37
11 10 9 9 10 11 11 13 15 16 18 18 19 19 18 16 14 13 13 13 12 11 11 11 11 10 11 10 10 11 12 11 10 10 11 12 13 14 15 17 20 21 21 22 24 23 18 16 18 21 21 20 22 24 24 23 24 25 25 26 27 26 27 28 29 30 30 31 32 32 33 33 34 34 34 35 36 36 36 36 35 35 35 35 35
13 12 12 11 11 11 12 13 15 17 18 19 20 20 18 16 15 14 14 14 13 12 11 11 11 11 12 11 9 11 12 12 11 11 12 12 13 14 15 16 18 20 21 22 22 23 21 19 19 19 20 21 22 22 24 24 24 25 25 26 26 27 27 27 28 29 31 32 33 33 33 34 35 35 36 36 36 37 37 37 37 37 36 36 36
16 16 15 13 12 12 13 14 15 16 18 19 21 21 20 18 16 15 15 16 14 13 12 12 11 12 12 12 11 11 12 12 12 12 13 13 14 15 16 17 17 18 19 21 21 22 23 22 20 19 20 22 23 23 25 25 25 26 26 26 26 26 27 27 26 27 29 31 32 33 34 34 35 36 37 38 38 38 39 39 39 39 39 38 38
20 19 17 15 13 12 12 14 15 17 18 19 20 21 21 19 17 16 16 17 16 14 13 13 13 13 13 13 12 12 12 12 12 13 14 15 16 16 16 16 17 17 19 20 20 20 21 23 23 21 22 23 24 24 25 26 27 28 27 27 27 27 27 26 26 26 27 29 31 32 33 33 34 36 37 38 39 39 40 41 41 41 41 41 41
23 21 19 18 17 16 16 16 16 17 18 19 20 21 21 20 19 18 17 18 17 16 15 14 14 15 14 13 13 13 13 11 12 13 14 16 16 17 17 17 18 19 20 21 22 21 21 23 24 22 23 25 25 25 25 25 26 28 28 27 27 27 27 27 26 26 26 27 28 30 32 33 34 34 35 37 38 39 39 40 41 42 43 43 43
25 24 23 23 23 22 23 21 18 18 18 18 20 21 22 21 20 18 17 18 18 17 16 16 16 16 15 14 13 14 13 12 12 14 15 16 16 16 18 18 18 20 22 23 23 23 21 21 23 24 24 25 26 27 27 26 25 26 27 27 28 28 28 28 28 28 27 27 28 29 31 32 33 34 35 36 37 39 39 40 41 42 43 44 44
28 27 26 26 27 28 27 23 18 19 20 20 21 21 22 22 21 19 18 17 17 18 17 17 17 16 14 14 14 14 14 12 13 15 16 16 17 17 18 20 20 21 24 25 25 25 23 21 22 23 24 25 26 26 27 28 27 27 28 29 30 30 30 29 29 30 29 29 29 30 32 33 34 34 35 36 37 38 40 40 41 42 43 44 45
32 30 28 29 30 31 29 24 21 23 25 24 24 23 22 22 22 20 18 17 17 18 18 18 17 16 15 13 12 13 14 13 14 15 15 16 17 18 19 21 23 24 25 28 29 28 28 26 23 22 23 24 26 26 27 29 30 30 30 30 30 30 31 30 30 30 30 30 30 31 33 33 34 35 36 36 37 38 39 41 41 42 44 45 46
36 35 34 33 34 34 33 31 28 29 29 28 28 27 24 23 22 20 18 18 17 17 18 17 16 15 14 12 12 13 13 13 14 15 15 16 17 18 20 23 26 27 27 30 31 31 31 30 27 26 25 25 26 27 29 29 30 31 31 31 31 31 31 31 30 30 31 32 32 32 32 31 32 34 35 36 36 37 39 40 41 42 44 45 47
41 42 41 42 43 43 43 40 36 33 31 30 30 30 27 24 22 20 18 18 18 18 17 16 16 14 13 12 12 13 14 14 15 16 17 18 18 19 21 23 26 28 29 29 31 32 32 31 30 29 29 28 27 26 28 29 29 29 31 32 32 32 33 32 30 29 31 33 34 33 32 31 31 32 33 35 36 37 38 40 40 42 43 45 47
43 45 46 48 50 51 50 47 43 39 36 33 33 32 29 25 22 20 19 19 19 17 16 15 15 14 13 13 14 14 15 16 16 17 19 20 21 22 23 25 27 29 30 30 31 32 33 34 33 31 29 29 28 26 26 28 29 30 31 31 32 32 32 32 31 30 30 31 33 33 33 32 31 32 33 34 36 37 38 39 41 43 44 45 47
35 34 35 40 46 48 49 48 43 38 34 35 36 34 30 26 23 20 19 19 19 18 17 16 16 16 15 15 15 16 17 18 18 19 21 23 24 26 28 30 32 33 33 32 32 33 34 36 36 33 29 28 27 27 26 27 29 31 30 30 31 31 31 32 33 32 31 31 32 33 33 34 33 33 34 34 35 37 38 39 42 44 45 46 47
32 27 23 27 32 33 34 34 32 30 30 33 33 33 32 28 24 22 21 20 20 19 19 19 19 20 18 17 17 18 18 19 20 22 23 25 27 29 31 32 33 35 34 32 33 35 34 34 34 33 31 28 26 26 27 28 29 29 29 29 31 32 33 34 35 35 34 32 32 33 33 34 35 35 35 35 35 36 38 40 41 44 46 48 48
29 25 21 21 22 21 20 21 24 27 31 32 31 31 33 30 26 24 23 23 22 22 22 22 23 24 23 21 21 21 21 21 22 25 26 27 30 32 33 33 34 35 35 32 32 34 33 33 33 31 32 30 26 25 27 28 28 29 30 31 32 34 35 35 35 36 35 33 33 34 34 34 36 38 38 37 37 38 39 39 41 43 45 47 48
28 28 26 23 22 23 24 25 26 29 34 36 34 31 32 33 30 27 26 26 25 25 25 25 26 26 26 26 26 25 25 24 24 28 29 29 31 33 33 34 35 36 37 34 33 33 32 32 31 29 30 30 27 26 28 29 29 30 31 33 34 35 36 37 37 36 34 33 33 35 35 36 38 40 40 40 40 40 41 41 42 44 45 46 47
24 25 25 24 25 28 31 32 33 32 34 38 37 33 33 35 34 32 31 29 27 28 29 29 29 29 29 30 30 30 30 28 27 29 31 31 33 34 33 34 35 36 38 37 35 35 33 32 30 28 30 32 30 29 30 30 29 30 33 34 35 37 37 36 37 36 33 33 35 37 38 39 40 41 41 42 44 44 44 45 46 46 46 46 47
18 20 22 23 25 29 34 38 39 37 37 38 39 37 35 36 37 36 36 34 31 30 31 32 32 31 31 32 32 34 35 35 33 32 33 33 35 35 33 34 35 37 38 38 37 36 35 35 33 29 30 32 32 31 31 30 30 32 35 34 34 37 37 36 36 36 34 34 37 40 41 41 42 43 43 45 47 46 47 49 49 49 49 48 48
20 21 22 22 23 27 33 39 41 40 39 41 41 39 38 38 39 40 40 38 34 32 32 33 33 32 33 35 35 36 38 39 37 35 34 35 36 36 36 37 37 37 38 38 37 36 36 36 36 33 31 32 33 32 31 30 31 35 37 36 33 34 37 36 37 37 36 36 40 42 43 42 43 46 47 47 49 49 50 51 53 53 52 50 48
21 21 21 21 22 25 30 36 41 41 40 42 42 40 39 39 39 40 40 38 36 35 34 33 32 32 35 37 38 38 39 40 39 36 36 37 37 39 40 40 39 37 37 37 35 36 36 36 35 35 35 34 34 32 30 31 34 37 39 38 35 34 36 37 37 38 38 38 41 43 44 43 45 49 51 51 52 52 52 53 55 55 51 48 46
20 20 20 21 22 24 28 35 40 40 40 42 43 42 41 40 39 39 37 37 38 37 34 31 31 34 36 38 40 41 41 42 41 38 38 40 40 40 41 41 39 36 36 37 35 36 36 36 35 36 36 35 33 31 31 33 36 37 39 39 37 36 37 38 38 38 39 40 42 44 46 47 48 52 54 54 54 54 54 55 55 50 45 41 42
19 20 20 21 21 23 28 34 37 38 40 42 43 42 41 39 37 36 37 39 38 35 32 31 33 36 38 40 43 44 44 45 44 41 41 42 41 40 41 40 39 36 36 37 37 37 36 35 36 36 33 32 32 32 34 36 37 37 38 39 37 37 38 40 40 40 41 42 42 44 48 50 50 53 56 56 55 54 56 56 50 41 35 34 36
20 20 19 18 20 23 26 28 32 35 38 38 37 38 37 34 32 35 38 38 34 32 31 33 35 38 41 43 46 47 48 48 47 45 44 43 41 40 40 38 37 36 37 37 38 38 37 36 35 32 30 29 31 33 34 35 35 36 38 39 38 38 40 42 43 44 44 43 42 43 48 50 50 53 56 56 54 55 57 53 41 31 28 28 31
21 20 17 17 19 20 20 22 26 29 30 29 31 33 31 29 31 36 37 32 30 31 33 35 38 42 44 46 49 50 50 50 49 46 44 41 40 39 37 36 37 37 37 37 36 37 38 37 34 31 29 29 31 32 32 32 32 33 36 39 39 39 42 44 46 47 46 44 43 44 47 49 50 51 53 54 55 56 55 47 32 24 25 26 27
22 19 15 15 16 16 16 18 22 25 25 27 31 31 28 28 31 33 31 30 31 33 35 37 40 44 45 45 46 46 46 46 45 43 40 38 37 36 35 36 37 37 36 36 36 36 36 36 33 30 29 30 31 31 31 30 30 31 34 37 38 39 42 44 46 48 48 46 44 42 45 49 49 48 48 53 59 59 52 42 29 22 24 26 24
Wind_Direction
258 266 274 278 283 287 289 292 297 301 302 300 299 299 300 302 306 310 311 310 309 308 307 309 310 305 298 294 294 296 296 293 287 279 271 265 265 262 255 256 259 257 254 251 249 246 246 247 240 236 236 235 229 224 226 223 212 206 202 202 203 195 185 180 180 187 195 197 196 194 191 192 195 196 199 206 212 214 216 211 204 201 199 198 199
256 263 273 280 285 291 292 290 291 294 296 296 298 299 300 302 305 309 311 312 312 310 309 311 309 301 295 296 300 302 301 301 303 298 284 269 263 258 248 248 255 258 257 255 252 247 241 239 239 236 234 233 233 234 236 235 231 225 215 208 212 214 208 201 197 197 202 210 210 208 206 203 205 206 205 208 212 216 220 219 215 208 204 201 202
254 261 271 281 288 294 296 295 292 291 291 294 295 296 297 299 303 307 309 311 313 311 311 311 303 297 298 303 306 308 311 310 309 308 299 277 264 260 250 246 252 257 259 258 256 252 246 240 237 235 233 230 231 236 239 239 237 234 229 223 222 223 223 221 218 215 214 220 225 223 219 214 214 216 217 216 215 218 218 219 220 216 210 206 206
254 263 271 280 285 291 296 298 294 286 284 286 289 294 297 300 304 306 308 312 313 309 308 306 298 297 302 305 306 312 317 317 314 311 306 289 268 261 256 250 251 255 260 262 259 254 251 246 240 238 235 231 231 232 234 237 238 237 234 230 231 233 234 236 237 235 231 231 236 238 234 228 223 222 224 226 225 224 223 222 222 221 216 211 211
258 264 272 281 285 289 292 295 294 290 288 287 289 295 300 302 304 307 309 310 309 305 304 301 296 298 303 304 306 313 318 321 324 320 310 300 280 262 256 253 253 255 258 259 257 252 250 249 247 245 238 233 235 233 231 236 240 242 239 235 236 237 238 242 244 245 245 242 243 247 249 245 239 232 229 229 231 230 229 228 227 226 223 217 215
261 264 269 281 287 290 292 294 295 294 294 292 291 295 298 300 302 305 306 302 298 296 295 297 298 301 302 303 306 311 316 320 326 334 330 316 296 270 252 245 244 247 251 252 251 248 246 248 248 248 243 236 235 234 232 236 241 244 243 242 242 240 240 242 243 245 248 248 248 250 254 257 255 250 243 238 235 234 233 233 232 232 231 227 222
266 267 267 272 281 291 296 296 294 292 293 291 291 295 297 299 301 302 300 295 289 285 285 292 297 298 297 300 304 306 309 314 323 339 334 326 329 305 272 246 236 234 238 242 245 244 241 243 245 245 244 240 237 235 234 235 239 243 245 247 248 246 244 245 247 250 251 252 251 251 254 258 261 260 257 253 247 241 237 236 236 236 236 235 232
270 270 268 269 278 293 297 293 287 284 287 290 294 297 296 295 297 298 296 293 290 287 287 289 292 294 296 301 304 302 302 305 316 328 317 313 326 308 290 260 239 231 232 231 235 242 240 239 241 241 242 243 241 239 238 237 238 243 249 251 252 252 251 251 254 255 257 257 256 254 254 256 261 261 261 259 256 251 246 241 240 239 239 239 238
271 271 269 271 280 293 295 291 285 284 287 293 296 292 289 290 293 295 294 293 293 293 293 293 293 293 297 305 307 302 298 298 306 313 314 316 308 287 278 261 239 233 241 234 229 234 241 241 240 240 241 242 243 242 243 243 244 246 251 253 254 255 254 254 255 256 258 259 258 256 254 256 260 260 260 259 258 257 253 248 244 242 241 240 240
268 270 270 275 283 289 290 289 288 287 289 294 292 285 284 287 291 293 294 294 294 294 296 296 293 290 295 305 310 304 298 296 297 300 308 309 296 288 285 277 254 220 239 241 234 232 234 239 242 243 244 244 243 243 245 246 247 248 250 252 253 253 252 252 254 256 256 256 257 259 259 257 255 256 257 257 255 254 254 252 250 246 244 242 241
266 269 273 277 282 284 284 283 283 284 288 291 286 281 283 287 291 293 293 293 293 295 296 294 291 288 292 302 307 303 298 292 289 291 293 287 282 278 271 270 266 239 225 226 233 236 231 230 237 241 245 249 246 242 242 244 246 248 249 250 251 251 251 251 252 255 257 256 256 258 259 257 255 253 252 252 251 250 249 249 250 249 248 245 243
266 269 274 277 278 277 276 276 280 284 286 282 276 278 285 291 293 292 291 291 292 294 293 291 290 288 290 297 301 299 296 289 285 289 288 282 281 276 260 253 253 253 246 231 224 233 234 230 232 235 239 246 248 245 243 242 243 245 247 249 251 252 253 253 251 251 256 257 256 257 257 256 257 256 253 251 251 250 249 246 245 246 247 248 246
262 267 274 277 275 273 273 276 280 282 278 275 276 284 291 292 290 288 289 290 289 288 287 288 292 290 290 295 297 297 294 286 285 289 288 287 287 282 272 261 248 239 239 243 236 232 238 236 233 234 234 239 245 246 246 245 243 244 245 248 251 254 255 257 256 256 256 255 254 256 258 258 259 259 256 254 253 253 253 251 246 242 242 245 246
256 265 273 274 272 273 274 275 277 277 277 281 285 289 290 287 285 285 286 285 283 282 282 286 291 290 293 295 297 299 296 289 289 287 286 286 286 285 284 283 276 262 243 236 237 232 232 235 234 236 236 237 242 246 248 248 246 245 246 248 252 255 258 259 261 262 260 257 255 255 257 258 258 260 259 256 256 255 255 255 253 247 243 242 244
250 258 264 265 267 268 271 272 275 279 283 286 287 287 286 284 285 285 284 281 278 277 277 281 285 288 292 293 292 297 299 296 296 294 292 288 281 278 286 293 294 292 281 261 246 237 233 234 233 236 239 240 242 245 250 252 252 251 250 250 252 255 258 259 260 261 261 261 260 257 257 257 255 257 258 258 258 257 255 255 256 254 249 246 246
239 244 248 252 258 262 269 275 279 283 285 289 293 293 292 291 291 287 283 278 276 276 276 276 276 279 285 286 288 297 303 298 301 306 304 297 287 286 293 300 299 298 296 287 271 256 247 246 242 239 240 241 243 245 250 254 256 256 255 254 253 253 255 256 257 259 259 259 260 259 258 257 255 255 256 257 257 256 255 255 255 255 253 251 249
221 221 224 225 237 258 281 296 301 307 311 314 312 307 304 303 300 295 289 285 284 282 280 277 272 269 274 279 283 291 293 296 305 310 305 297 298 303 304 302 303 304 303 299 291 279 267 261 257 253 250 248 248 248 251 255 258 259 259 259 257 255 255 255 256 257 256 256 257 258 257 256 255 254 254 254 254 254 255 256 256 254 253 254 253
181 170 161 147 117 74 41 19 11 5 354 341 330 320 314 310 307 304 301 301 300 294 287 281 275 267 266 271 272 270 272 287 297 295 293 293 299 306 305 304 306 306 305 304 300 296 288 279 272 267 264 261 259 258 256 256 258 260 262 262 263 262 260 259 259 259 257 256 256 257 258 256 253 252 252 252 253 253 253 255 256 255 254 254 253
142 132 119 102 79 60 46 35 27 17 6 352 337 325 317 315 313 311 309 309 309 303 297 289 280 275 270 268 265 263 264 265 270 276 284 293 301 304 302 310 312 307 305 304 301 300 297 293 288 281 275 271 268 266 266 264 262 260 260 261 262 263 263 263 263 263 262 261 260 260 260 257 253 252 251 251 252 253 253 253 254 255 256 255 254
124 113 96 77 61 49 39 33 26 16 5 352 340 331 325 322 318 314 312 311 312 310 305 298 291 288 280 269 259 255 254 251 259 270 278 286 296 300 298 309 312 308 303 302 302 301 300 298 295 290 285 281 276 272 270 269 268 266 263 262 262 262 263 264 265 265 264 263 263 262 261 260 257 255 254 253 253 254 254 255 255 256 256 255 253
121 106 87 69 52 41 33 27 22 15 6 354 345 339 333 327 321 317 313 312 313 311 306 301 297 292 282 269 258 254 254 252 253 260 272 278 283 289 296 303 305 303 302 304 303 302 302 300 297 294 290 287 283 280 276 273 272 271 270 267 266 264 264 264 265 265 265 264 263 262 261 261 260 259 258 257 257 256 256 257 257 257 256 255 252
133 119 96 70 45 31 22 16 14 11 7 360 350 343 338 332 325 319 316 313 309 304 297 294 292 289 281 273 270 270 268 266 262 256 261 268 272 279 288 293 294 297 303 307 307 304 304 303 300 297 293 290 287 284 281 278 276 275 275 273 272 270 268 267 267 266 266 266 266 265 264 263 261 261 260 259 258 257 257 257 258 258 258 256 254
146 135 105 61 32 19 11 6 5 2 1 359 354 346 340 335 330 324 321 316 307 298 291 289 289 287 286 283 282 282 281 279 280 275 269 268 271 275 280 285 289 292 295 299 300 301 304 305 303 300 296 292 289 286 283 281 278 277 276 276 275 275 275 273 271 270 268 268 267 267 267 266 265 265 264 264 263 261 259 258 257 258 257 257 255
151 139 94 24 3 356 353 353 353 352 350 351 352 348 341 335 333 330 327 323 314 304 295 290 291 291 292 293 290 287 287 287 289 291 289 286 286 289 290 292 294 289 287 289 291 295 302 304 304 303 300 296 293 290 287 283 280 279 278 277 276 275 276 276 276 276 274 272 270 268 267 267 267 266 266 266 266 265 263 261 259 258 257 256 255
184 229 291 310 320 326 332 337 339 339 339 340 344 346 342 335 330 328 328 327 321 311 299 292 293 294 294 293 291 288 286 287 289 292 294 296 298 302 304 305 304 298 296 296 294 296 299 300 301 301 299 298 296 293 290 288 285 282 281 279 279 277 276 276 277 278 278 277 275 273 270 267 266 266 266 266 266 266 266 265 263 261 259 256 255
239 259 277 292 302 310 316 321 325 326 327 329 333 339 341 333 324 324 326 326 323 315 305 299 297 295 293 290 287 285 282 283 287 290 294 300 303 306 308 308 307 305 305 304 302 302 301 299 298 296 295 296 296 295 293 291 290 288 286 283 282 281 280 278 277 276 277 278 278 277 275 272 269 267 265 265 266 266 266 266 266 264 262 259 257
242 257 272 285 296 305 310 314 316 316 318 321 324 330 336 331 320 318 319 319 319 314 310 310 306 299 296 296 291 287 286 286 289 293 296 298 301 304 306 306 304 303 304 303 304 306 305 301 296 294 295 295 295 297 295 293 293 293 291 288 286 284 284 283 282 280 278 277 277 277 278 277 274 272 269 268 267 267 267 267 267 266 264 262 260
242 256 268 277 289 300 308 313 314 314 315 317 318 322 329 327 316 312 312 312 311 310 313 314 310 305 300 298 293 290 291 292 292 289 286 287 293 298 300 300 299 299 299 299 302 304 305 304 300 297 297 295 293 293 293 293 295 293 290 289 288 287 286 286 285 283 281 278 277 276 276 276 276 275 273 272 271 269 269 268 267 267 265 263 261
247 257 265 271 282 294 304 311 314 315 314 314 315 317 323 323 314 307 306 305 303 303 306 307 304 301 298 296 291 286 287 290 291 288 286 289 291 290 289 288 290 292 294 295 297 300 303 306 306 302 297 294 292 290 289 289 290 290 289 287 287 287 286 286 284 282 280 278 276 276 275 275 275 275 275 274 273 273 272 270 269 268 266 264 262
251 259 263 268 280 291 299 305 309 310 310 310 310 313 317 318 311 304 301 300 297 295 296 298 298 294 293 294 289 284 286 291 293 292 291 289 286 285 286 286 286 287 288 288 291 296 301 303 304 301 295 292 292 290 289 288 286 286 286 285 285 285 285 285 284 281 279 277 276 275 275 274 274 274 275 276 275 274 274 273 271 269 267 266 264
252 258 261 266 275 279 284 292 297 301 303 302 304 307 312 313 307 299 297 295 292 290 289 291 291 291 292 293 291 289 292 296 296 295 294 292 290 291 293 294 293 290 289 288 288 291 295 297 299 298 293 289 288 286 285 286 286 285 285 285 284 283 282 283 282 280 277 276 277 277 276 276 275 274 274 275 276 275 275 274 273 271 269 267 265
252 257 260 263 264 264 271 279 286 294 297 296 297 302 305 306 302 294 292 292 290 287 287 287 288 290 293 294 291 291 294 298 298 297 298 297 297 299 299 300 300 296 293 292 290 288 289 292 294 294 291 290 289 287 286 285 286 287 288 287 285 284 284 282 280 278 276 275 276 277 277 277 275 275 274 274 275 275 275 274 274 273 271 269 267
251 255 257 261 261 266 274 276 277 285 290 288 290 297 300 299 295 290 287 288 289 286 284 285 286 288 292 293 291 292 297 303 303 300 300 300 300 301 301 302 303 301 298 297 295 293 291 289 290 291 290 290 290 291 292 290 288 288 290 290 288 287 285 282 280 279 277 276 275 274 274 275 274 274 273 273 273 274 274 274 274 273 272 271 269
251 252 254 258 263 271 277 276 279 288 291 287 283 288 294 294 289 286 285 286 286 284 281 281 283 285 288 291 294 298 303 307 302 297 298 300 300 301 303 304 306 305 303 302 301 300 298 293 288 287 287 288 289 290 292 293 292 291 292 292 290 288 286 285 283 282 281 279 276 273 271 270 271 271 271 270 271 272 273 273 273 273 272 271 270
250 251 251 254 261 271 276 274 277 283 286 288 284 280 285 289 287 284 284 285 282 279 278 280 282 283 285 289 293 297 301 303 298 294 295 298 300 302 306 307 308 307 305 303 302 301 299 297 294 290 286 285 286 288 290 292 294 295 295 292 290 289 289 288 287 286 285 281 276 273 272 272 271 270 270 270 271 272 272 272 272 271 271 270 269
251 254 255 259 265 272 272 269 270 272 273 277 281 279 278 281 283 281 280 280 277 274 277 278 279 282 287 292 292 292 297 299 295 293 296 299 301 305 309 311 310 309 306 303 303 302 300 298 298 297 294 289 286 287 289 290 292 293 292 291 290 290 289 288 287 287 286 283 279 275 273 274 273 272 271 272 273 274 273 272 271 270 270 269 268
252 255 260 266 271 273 272 272 274 272 267 269 275 276 275 275 277 276 274 274 273 272 274 276 279 285 292 295 293 292 296 297 296 297 299 299 298 300 306 311 312 311 310 308 306 304 302 300 300 301 301 298 292 289 289 289 290 290 290 289 289 289 289 288 288 286 286 285 284 281 276 274 274 273 272 272 273 273 271 271 270 269 269 269 269
253 260 267 272 273 273 276 281 285 280 270 268 273 273 272 272 270 268 268 270 272 270 269 273 280 288 293 295 295 296 298 298 298 300 300 298 296 296 300 307 311 312 314 313 309 306 304 302 302 303 303 301 297 293 291 291 293 292 291 289 288 287 288 289 289 288 286 285 286 285 282 278 277 276 275 274 274 272 271 271 271 271 271 270 269
273 283 284 282 279 277 280 285 290 286 270 267 271 269 267 267 263 262 263 266 268 267 266 272 280 285 287 289 292 295 297 298 300 301 301 298 296 296 299 306 313 317 317 315 311 307 305 304 304 305 305 303 298 295 293 294 295 295 294 291 288 288 289 290 291 291 289 287 286 285 285 284 281 279 279 277 275 274 272 271 271 273 273 272 270
301 308 302 291 282 280 282 282 283 281 270 268 269 265 263 261 256 256 259 261 264 264 266 272 278 283 284 284 287 289 289 293 297 298 297 296 296 298 301 306 313 315 315 315 310 307 307 307 306 306 308 306 298 293 295 298 297 296 293 290 288 290 291 291 292 293 293 292 291 289 289 290 289 289 287 283 281 280 279 276 275 274 274 273 270
298 298 294 287 277 274 278 273 267 268 269 271 270 266 262 258 251 251 255 257 260 263 266 270 275 280 284 283 284 287 287 291 297 297 295 296 298 299 301 306 311 312 311 311 307 305 307 307 306 306 306 305 300 296 296 299 298 294 290 288 288 289 290 290 291 292 293 294 293 291 292 295 296 295 293 290 289 288 286 285 284 280 277 276 273
282 284 281 276 270 266 266 265 263 264 267 271 271 268 264 258 251 249 250 253 258 262 265 267 270 275 280 281 283 286 285 288 297 301 299 296 297 298 300 305 308 309 310 310 308 307 306 304 304 304 301 300 299 295 295 297 295 291 289 289 290 289 288 289 289 289 291 292 290 290 292 296 297 294 293 293 291 290 290 291 291 287 282 278 275
277 279 277 274 269 263 262 263 263 264 267 270 269 265 262 260 256 250 247 249 253 258 263 266 268 272 276 280 285 286 284 285 294 300 300 296 294 294 298 304 306 308 309 310 310 310 306 302 302 299 295 293 292 292 295 296 293 289 289 290 292 291 290 290 290 290 292 292 290 291 294 297 296 294 292 292 291 291 294 296 294 292 287 280 275
284 282 282 278 269 263 263 264 264 264 266 268 267 262 260 260 258 254 250 247 248 255 263 267 269 273 277 281 286 290 291 291 292 293 297 299 295 291 296 303 307 308 309 309 310 310 308 304 301 296 291 290 290 292 295 293 291 290 291 292 293 293 292 292 291 293 295 294 294 295 295 297 298 295 290 290 292 295 297 298 298 296 292 284 276
286 287 286 280 271 266 264 266 267 265 264 267 266 263 261 259 257 258 256 252 252 256 262 267 271 276 280 284 287 289 292 293 291 289 295 300 296 292 296 303 306 307 308 307 307 308 307 306 303 300 295 292 292 294 295 292 292 294 294 294 293 292 293 293 292 294 296 296 297 296 295 296 299 297 293 294 297 299 300 300 301 299 294 286 277
281 282 280 278 274 269 265 268 270 267 264 265 263 262 263 258 255 259 261 262 265 263 260 267 274 278 281 284 286 288 290 292 292 291 294 296 294 293 296 301 304 305 305 304 304 305 306 304 302 300 297 295 294 295 294 293 295 296 295 295 294 294 294 294 294 295 297 298 299 299 298 300 302 301 300 300 301 302 302 302 302 300 294 285 276
277 275 275 276 276 271 265 265 267 266 264 262 259 259 261 258 256 260 265 273 277 268 259 266 273 277 281 284 286 288 289 290 291 292 293 294 294 294 295 298 301 302 302 302 302 303 303 302 302 300 298 296 295 295 295 295 295 295 293 293 295 297 297 297 297 299 300 302 304 304 303 304 305 304 302 302 303 303 303 304 303 298 290 281 274
278 276 277 278 277 271 263 260 263 264 262 261 258 257 258 257 256 261 270 278 276 264 258 267 272 277 282 285 287 288 288 288 290 292 293 294 294 294 295 298 300 300 301 301 301 300 301 302 303 300 296 295 295 296 297 297 296 295 293 293 297 300 300 301 302 304 304 305 306 306 305 305 305 304 303 303 303 303 304 305 303 294 284 278 273
281 279 279 277 272 266 262 260 262 262 262 261 257 253 252 253 256 266 277 277 267 257 261 269 274 278 282 283 285 287 288 289 289 290 292 293 292 293 295 297 299 300 301 302 301 301 301 302 301 297 291 291 294 295 296 296 296 296 295 297 301 303 303 305 305 306 306 306 307 307 304 303 303 303 302 301 302 303 306 308 304 290 280 278 275
283 280 276 271 267 265 265 262 260 260 260 257 251 248 250 254 262 274 279 268 256 259 266 270 273 278 280 282 284 285 287 287 287 289 292 291 290 292 295 297 299 300 301 302 300 300 302 303 301 296 291 292 294 295 296 296 296 296 297 300 304 305 306 306 306 306 306 307 309 308 304 301 301 301 301 301 303 307 310 312 305 287 279 281 277
282 278 271 267 268 270 271 266 258 254 252 249 247 248 252 260 270 276 270 255 256 267 273 274 277 281 284 287 287 286 287 286 286 288 290 290 291 295 297 298 300 300 301 300 300 301 303 302 299 297 296 297 298 300 300 299 299 299 300 302 305 305 305 305 305 305 305 307 310 309 304 300 300 300 302 305 308 312 315 315 307 290 283 284 280
Height
3229 3229 3228 3228 3228 3228 3228 3227 3227 3227 3226 3226 3226 3226 3225 3224 3224 3223 3223 3222 3221 3220 3219 3218 3217 3216 3215 3213 3212 3211 3211 3211 3211 3210 3210 3210 3210 3210 3211 3212 3212 3212 3212 3212 3212 3212 3214 3214 3214 3215 3215 3216 3216 3217 3217 3217 3217 3217 3217 3217 3218 3218 3218 3219 3219 3220 3220 3221 3221 3222 3222 3222 3223 3223 3223 3224 3224 3224 3224 3224 3224 3225 3225 3225 3226
3228 3228 3228 3227 3227 3227 3227 3226 3226 3225 3225 3225 3225 3225 3224 3223 3223 3222 3222 3221 3220 3219 3218 3217 3216 3214 3212 3211 3210 3209 3209 3209 3209 3208 3208 3208 3208 3208 3209 3210 3210 3211 3211 3211 3211 3211 3212 3213 3213 3214 3214 3215 3215 3216 3216 3216 3217 3217 3217 3217 3217 3218 3218 3218 3218 3219 3219 3220 3220 3221 3221 3222 3222 3222 3223 3223 3223 3224 3224 3224 3224 3224 3224 3225 3225
3227 3227 3227 3226 3226 3226 3226 3225 3225 3225 3225 3224 3224 3224 3223 3222 3222 3221 3220 3220 3219 3218 3217 3217 3215 3213 3211 3210 3208 3207 3207 3207 3207 3207 3206 3206 3206 3207 3207 3208 3209 3210 3210 3210 3210 3210 3211 3211 3212 3212 3213 3214 3214 3214 3215 3215 3216 3216 3216 3216 3217 3217 3218 3218 3218 3218 3219 3219 3220 3220 3220 3221 3221 3222 3222 3222 3223 3223 3223 3224 3224 3224 3224 3224 3225
3225 3225 3225 3225 3225 3225 3224 3224 3224 3224 3224 3224 3223 3223 3222 3221 3221 3220 3219 3219 3218 3217 3216 3215 3214 3212 3210 3209 3208 3207 3206 3206 3205 3205 3205 3205 3205 3206 3206 3207 3207 3208 3208 3209 3209 3210 3210 3210 3211 3211 3212 3212 3213 3213 3214 3214 3215 3215 3215 3215 3216 3217 3217 3218 3218 3218 3218 3219 3219 3220 3220 3220 3220 3221 3221 3222 3222 3222 3223 3223 3224 3224 3224 3224 3224
3224 3224 3224 3224 3224 3224 3223 3223 3223 3223 3223 3222 3222 3222 3221 3220 3219 3219 3218 3217 3217 3216 3215 3214 3212 3210 3209 3208 3207 3206 3206 3205 3204 3204 3203 3203 3204 3204 3205 3205 3206 3206 3207 3207 3208 3209 3209 3209 3210 3210 3211 3211 3211 3212 3213 3213 3213 3214 3214 3215 3215 3216 3216 3217 3217 3218 3218 3218 3219 3219 3220 3220 3220 3220 3220 3221 3221 3222 3222 3222 3223 3223 3223 3223 3223
3223 3223 3223 3223 3223 3222 3222 3222 3222 3221 3221 3221 3220 3220 3220 3219 3218 3218 3217 3216 3215 3215 3214 3213 3211 3209 3208 3207 3206 3206 3205 3204 3203 3203 3202 3202 3203 3203 3203 3204 3204 3205 3205 3206 3206 3207 3207 3208 3209 3209 3210 3210 3210 3211 3211 3212 3212 3213 3214 3214 3214 3215 3215 3215 3216 3217 3217 3217 3218 3219 3220 3220 3221 3221 3221 3221 3221 3221 3221 3222 3222 3222 3223 3223 3223
3222 3222 3222 3222 3221 3221 3221 3221 3221 3220 3220 3219 3219 3219 3219 3218 3217 3216 3215 3214 3214 3213 3213 3212 3210 3208 3207 3206 3206 3205 3204 3203 3203 3202 3202 3202 3202 3202 3202 3202 3203 3203 3204 3204 3204 3205 3205 3206 3207 3208 3208 3209 3209 3210 3210 3211 3211 3212 3213 3213 3213 3214 3214 3214 3215 3216 3216 3217 3217 3218 3218 3219 3220 3221 3221 3221 3221 3221 3221 3221 3221 3222 3222 3222 3223
3221 3221 3220 3220 3220 3220 3220 3220 3220 3219 3219 3218 3218 3218 3217 3216 3215 3214 3213 3212 3211 3211 3210 3210 3209 3207 3206 3205 3205 3204 3203 3202 3202 3202 3202 3202 3202 3202 3202 3202 3202 3202 3202 3202 3203 3203 3203 3204 3205 3206 3207 3207 3208 3208 3209 3209 3210 3211 3211 3212 3212 3212 3213 3214 3214 3215 3215 3216 3216 3216 3217 3218 3219 3220 3220 3221 3221 3221 3221 3221 3221 3221 3221 3222 3222
3220 3220 3219 3219 3219 3219 3218 3218 3218 3218 3217 3217 3217 3217 3216 3214 3213 3213 3212 3210 3210 3209 3208 3208 3207 3206 3204 3204 3204 3203 3202 3202 3201 3201 3201 3201 3201 3201 3201 3201 3201 3201 3201 3201 3201 3202 3202 3202 3203 3204 3204 3205 3206 3207 3207 3208 3209 3209 3210 3210 3211 3211 3212 3213 3213 3213 3214 3214 3215 3215 3215 3216 3217 3218 3219 3219 3220 3220 3221 3221 3220 3220 3221 3221 3221
3219 3218 3218 3217 3217 3217 3217 3216 3217 3216 3216 3216 3216 3215 3214 3212 3211 3211 3210 3209 3208 3208 3207 3207 3206 3204 3203 3203 3203 3202 3202 3201 3200 3200 3200 3200 3200 3200 3200 3200 3200 3200 3200 3200 3200 3200 3201 3201 3201 3202 3203 3203 3204 3205 3205 3206 3206 3207 3207 3208 3209 3209 3210 3211 3211 3212 3212 3213 3213 3213 3214 3214 3214 3215 3216 3217 3218 3218 3219 3220 3220 3220 3220 3220 3220
3217 3217 3217 3216 3216 3216 3215 3215 3215 3214 3214 3215 3214 3212 3211 3210 3209 3209 3208 3208 3207 3207 3206 3205 3204 3203 3202 3202 3202 3201 3201 3200 3199 3199 3198 3198 3198 3198 3198 3198 3198 3198 3198 3198 3198 3198 3199 3200 3200 3201 3202 3202 3202 3202 3203 3203 3204 3204 3205 3205 3206 3207 3208 3209 3210 3210 3210 3211 3211 3211 3212 3212 3212 3212 3213 3214 3215 3216 3216 3217 3218 3219 3219 3219 3219
3216 3216 3216 3215 3215 3214 3214 3214 3213 3213 3213 3213 3212 3210 3209 3209 3208 3207 3207 3206 3206 3205 3204 3203 3203 3202 3201 3201 3200 3200 3200 3199 3198 3198 3197 3197 3196 3197 3196 3197 3197 3197 3197 3197 3197 3197 3197 3197 3198 3199 3200 3200 3200 3200 3201 3201 3201 3202 3203 3203 3204 3205 3205 3206 3207 3208 3208 3208 3208 3209 3209 3210 3210 3210 3211 3212 3213 3214 3214 3214 3215 3216 3217 3218 3218
3215 3214 3214 3214 3214 3213 3213 3212 3212 3211 3211 3210 3209 3208 3208 3207 3206 3205 3205 3205 3204 3203 3203 3202 3201 3200 3199 3199 3199 3199 3198 3198 3197 3197 3196 3195 3195 3195 3195 3195 3195 3195 3196 3195 3195 3195 3195 3196 3196 3197 3198 3199 3199 3198 3198 3199 3199 3199 3200 3201 3202 3202 3203 3203 3204 3205 3205 3205 3206 3207 3208 3208 3208 3209 3210 3210 3211 3212 3212 3213 3213 3213 3214 3215 3216
3213 3213 3213 3213 3213 3212 3212 3211 3210 3210 3209 3208 3207 3207 3206 3205 3204 3204 3203 3203 3202 3202 3201 3200 3199 3199 3198 3198 3197 3197 3197 3196 3196 3196 3195 3195 3194 3194 3194 3194 3194 3194 3194 3194 3194 3194 3194 3194 3195 3195 3195 3196 3196 3196 3196 3196 3196 3197 3197 3198 3199 3200 3200 3200 3200 3201 3202 3203 3204 3205 3205 3206 3207 3207 3208 3208 3208 3209 3210 3211 3211 3211 3211 3212 3213
3212 3212 3212 3212 3212 3211 3210 3209 3209 3208 3208 3207 3206 3205 3204 3203 3203 3202 3201 3201 3201 3200 3200 3199 3198 3198 3197 3197 3196 3196 3196 3196 3195 3195 3194 3194 3193 3193 3193 3193 3193 3192 3192 3193 3193 3193 3193 3193 3193 3193 3193 3194 3194 3194 3194 3194 3194 3194 3195 3195 3196 3197 3197 3197 3197 3198 3199 3201 3202 3202 3203 3203 3204 3205 3205 3205 3206 3206 3207 3208 3209 3209 3209 3210 3211
3211 3212 3211 3211 3210 3210 3209 3209 3208 3208 3207 3206 3205 3204 3203 3202 3201 3200 3200 3200 3199 3199 3198 3198 3197 3197 3196 3196 3195 3195 3196 3196 3195 3195 3194 3193 3193 3192 3192 3192 3192 3192 3191 3191 3191 3192 3192 3191 3191 3191 3192 3192 3192 3192 3193 3192 3192 3192 3192 3193 3193 3194 3194 3194 3195 3195 3197 3198 3198 3199 3199 3200 3200 3201 3202 3202 3203 3204 3204 3205 3206 3207 3207 3208 3208
3211 3211 3210 3210 3209 3209 3208 3208 3207 3207 3206 3205 3204 3203 3202 3201 3200 3199 3199 3198 3198 3198 3197 3197 3196 3196 3196 3195 3195 3195 3196 3196 3195 3195 3194 3194 3193 3191 3191 3191 3191 3191 3191 3190 3190 3190 3190 3190 3190 3190 3190 3190 3190 3190 3190 3190 3190 3190 3190 3190 3190 3191 3191 3191 3192 3192 3194 3195 3195 3195 3196 3196 3197 3197 3198 3199 3200 3201 3201 3202 3203 3203 3204 3205 3206
3210 3210 3210 3209 3209 3208 3208 3208 3207 3206 3205 3204 3203 3202 3201 3199 3199 3198 3198 3197 3197 3196 3196 3196 3195 3195 3194 3194 3193 3194 3194 3194 3194 3194 3193 3193 3192 3191 3190 3190 3190 3190 3190 3189 3189 3189 3189 3189 3189 3189 3188 3188 3188 3188 3188 3188 3188 3187 3187 3188 3188 3188 3188 3188 3188 3189 3190 3191 3192 3192 3192 3193 3194 3194 3194 3195 3196 3197 3198 3199 3199 3200 3201 3202 3203
3209 3209 3209 3209 3209 3208 3208 3207 3206 3205 3204 3203 3202 3201 3200 3198 3198 3197 3197 3196 3196 3195 3195 3195 3194 3193 3193 3192 3192 3191 3191 3192 3192 3192 3192 3191 3191 3191 3189 3188 3188 3188 3188 3188 3188 3187 3187 3187 3187 3187 3186 3186 3186 3185 3185 3184 3184 3184 3184 3184 3185 3185 3185 3185 3185 3186 3187 3187 3188 3189 3189 3190 3190 3191 3191 3192 3193 3193 3194 3195 3196 3197 3198 3199 3200
3209 3209 3208 3208 3208 3207 3207 3206 3205 3205 3203 3202 3201 3200 3199 3198 3197 3196 3196 3195 3195 3194 3194 3194 3193 3192 3191 3191 3191 3190 3190 3190 3190 3190 3190 3190 3190 3190 3189 3187 3186 3186 3186 3186 3186 3186 3185 3185 3185 3184 3184 3184 3184 3183 3183 3182 3182 3181 3181 3181 3181 3181 3182 3182 3183 3183 3184 3184 3185 3185 3186 3186 3186 3187 3188 3188 3189 3189 3190 3191 3192 3193 3194 3195 3197
3208 3208 3207 3207 3207 3206 3206 3205 3205 3204 3203 3202 3201 3200 3199 3197 3196 3196 3195 3194 3194 3193 3193 3193 3192 3192 3191 3190 3190 3190 3189 3189 3189 3189 3189 3189 3189 3189 3188 3187 3185 3185 3184 3184 3184 3184 3184 3183 3182 3182 3181 3181 3181 3181 3181 3181 3180 3179 3179 3179 3179 3179 3179 3179 3180 3180 3181 3181 3182 3182 3183 3183 3183 3183 3184 3184 3185 3186 3186 3187 3188 3189 3190 3191 3192
3207 3207 3207 3206 3206 3205 3205 3204 3204 3203 3202 3202 3201 3200 3199 3198 3197 3196 3195 3194 3193 3193 3193 3192 3192 3191 3191 3190 3189 3189 3189 3188 3188 3188 3188 3188 3188 3187 3187 3186 3185 3183 3182 3182 3182 3181 3181 3181 3180 3180 3179 3178 3178 3178 3178 3178 3178 3177 3177 3177 3177 3177 3177 3177 3176 3177 3177 3178 3178 3179 3179 3179 3179 3179 3180 3180 3181 3182 3182 3183 3184 3185 3186 3187 3188
3207 3206 3206 3206 3205 3205 3204 3204 3203 3202 3202 3201 3201 3200 3199 3198 3197 3196 3195 3194 3193 3192 3192 3192 3191 3191 3190 3189 3189 3188 3188 3187 3187 3187 3186 3186 3186 3185 3185 3184 3184 3183 3182 3181 3180 3179 3178 3178 3177 3177 3176 3176 3175 3175 3175 3174 3175 3175 3174 3174 3174 3174 3174 3174 3174 3174 3174 3174 3174 3175 3175 3175 3175 3176 3176 3176 3176 3177 3178 3179 3179 3180 3181 3182 3183
3206 3206 3205 3205 3205 3204 3204 3203 3203 3202 3202 3201 3200 3199 3199 3198 3197 3197 3196 3194 3193 3192 3191 3191 3190 3190 3189 3189 3188 3187 3186 3186 3185 3184 3184 3183 3183 3183 3182 3181 3181 3181 3180 3180 3179 3178 3177 3175 3174 3174 3173 3173 3172 3172 3171 3171 3171 3172 3171 3171 3171 3171 3171 3171 3171 3171 3171 3171 3171 3171 3171 3171 3172 3172 3172 3172 3172 3173 3173 3174 3175 3175 3176 3177 3178
3205 3205 3205 3204 3204 3204 3203 3203 3202 3202 3201 3200 3200 3199 3198 3197 3196 3196 3195 3194 3193 3192 3191 3190 3189 3188 3188 3187 3187 3186 3185 3184 3183 3183 3182 3181 3180 3180 3179 3179 3179 3178 3177 3177 3177 3176 3175 3174 3172 3171 3170 3170 3169 3169 3168 3167 3167 3168 3168 3168 3168 3167 3167 3167 3167 3167 3167 3167 3167 3167 3167 3168 3168 3168 3168 3168 3168 3169 3169 3170 3170 3171 3171 3172 3173
3204 3204 3204 3203 3203 3203 3202 3202 3201 3201 3200 3199 3198 3197 3196 3195 3195 3194 3193 3192 3192 3191 3190 3188 3187 3187 3186 3186 3185 3184 3183 3183 3182 3181 3181 3180 3179 3178 3177 3177 3177 3176 3174 3173 3173 3174 3174 3173 3171 3169 3168 3167 3166 3166 3166 3164 3164 3164 3164 3164 3164 3164 3163 3163 3163 3163 3163 3162 3162 3162 3163 3163 3164 3164 3164 3164 3164 3165 3165 3165 3166 3166 3166 3167 3168
3202 3202 3202 3202 3202 3201 3201 3201 3200 3199 3199 3198 3197 3196 3195 3193 3193 3192 3191 3190 3190 3189 3188 3187 3185 3185 3185 3184 3184 3182 3182 3181 3181 3181 3180 3179 3178 3177 3176 3175 3174 3174 3173 3171 3170 3171 3171 3171 3169 3167 3166 3165 3164 3163 3163 3162 3161 3160 3160 3160 3160 3160 3159 3159 3159 3159 3159 3158 3158 3158 3158 3158 3159 3159 3160 3160 3160 3160 3161 3161 3161 3162 3162 3162 3163
3200 3200 3200 3200 3200 3199 3199 3199 3198 3198 3197 3196 3195 3194 3193 3192 3191 3190 3189 3189 3188 3187 3186 3185 3184 3183 3183 3182 3182 3181 3180 3180 3180 3180 3179 3178 3177 3176 3175 3174 3172 3171 3170 3169 3168 3168 3168 3168 3167 3165 3164 3163 3163 3162 3161 3160 3159 3158 3157 3157 3156 3156 3156 3155 3155 3154 3154 3154 3153 3153 3154 3154 3154 3154 3154 3154 3155 3155 3155 3156 3156 3157 3157 3157 3158
3198 3198 3198 3198 3198 3198 3197 3197 3196 3196 3195 3195 3194 3193 3192 3190 3189 3189 3188 3187 3187 3185 3184 3183 3182 3182 3181 3181 3181 3180 3179 3179 3178 3177 3177 3176 3175 3175 3174 3173 3171 3169 3168 3167 3166 3166 3165 3165 3165 3164 3163 3161 3160 3160 3158 3158 3157 3155 3154 3154 3153 3153 3152 3152 3151 3150 3150 3149 3149 3149 3149 3149 3149 3148 3149 3149 3149 3149 3150 3150 3151 3151 3152 3152 3153
3196 3196 3196 3196 3196 3196 3196 3195 3194 3194 3193 3193 3192 3191 3190 3189 3188 3187 3186 3186 3185 3184 3183 3182 3181 3181 3180 3179 3179 3178 3177 3177 3176 3175 3175 3174 3173 3173 3172 3170 3169 3168 3167 3166 3165 3164 3163 3162 3162 3162 3161 3160 3158 3157 3155 3154 3154 3153 3152 3151 3150 3149 3149 3148 3148 3147 3146 3145 3144 3144 3144 3144 3144 3144 3143 3143 3143 3144 3144 3144 3145 3146 3146 3147 3148
3194 3194 3194 3194 3194 3194 3193 3193 3192 3192 3191 3191 3190 3189 3188 3187 3186 3185 3185 3184 3183 3183 3182 3181 3180 3179 3178 3178 3177 3176 3175 3175 3174 3174 3173 3172 3172 3171 3169 3169 3167 3166 3166 3164 3163 3162 3161 3159 3159 3159 3158 3157 3156 3155 3153 3151 3150 3149 3148 3147 3146 3145 3145 3144 3144 3143 3142 3141 3140 3140 3140 3140 3140 3139 3139 3138 3138 3138 3138 3138 3139 3139 3140 3141 3142
3193 3193 3192 3192 3191 3191 3190 3190 3190 3190 3189 3189 3188 3187 3186 3186 3185 3184 3183 3182 3181 3181 3180 3179 3178 3177 3176 3176 3175 3174 3173 3173 3173 3172 3172 3171 3170 3169 3167 3166 3165 3164 3163 3162 3160 3160 3159 3157 3156 3156 3155 3153 3152 3151 3150 3149 3146 3145 3144 3143 3143 3142 3141 3140 3140 3139 3139 3138 3137 3136 3135 3135 3135 3135 3134 3134 3133 3133 3133 3133 3133 3133 3134 3135 3135
3190 3190 3190 3189 3188 3188 3188 3187 3187 3187 3186 3186 3185 3185 3184 3184 3183 3182 3181 3180 3179 3179 3178 3177 3176 3175 3175 3174 3173 3172 3172 3171 3171 3171 3170 3169 3168 3167 3165 3164 3163 3161 3159 3158 3157 3157 3157 3156 3154 3153 3152 3150 3148 3147 3146 3145 3144 3142 3140 3139 3139 3138 3137 3136 3135 3135 3135 3134 3134 3132 3131 3130 3130 3130 3129 3129 3128 3128 3127 3127 3127 3127 3128 3128 3129
3187 3187 3186 3185 3185 3185 3185 3184 3184 3184 3184 3183 3182 3182 3182 3181 3181 3180 3179 3178 3177 3176 3176 3175 3175 3174 3173 3173 3172 3171 3170 3170 3170 3169 3169 3168 3166 3165 3163 3162 3161 3159 3157 3155 3154 3153 3153 3153 3152 3151 3149 3147 3145 3144 3143 3141 3140 3138 3137 3136 3135 3134 3132 3131 3131 3130 3130 3129 3129 3127 3126 3125 3125 3124 3124 3123 3123 3122 3122 3122 3121 3121 3121 3121 3122
3184 3183 3183 3182 3181 3182 3182 3181 3180 3181 3181 3181 3179 3179 3178 3178 3178 3177 3176 3175 3175 3174 3174 3174 3173 3172 3171 3171 3170 3170 3169 3169 3168 3167 3167 3166 3164 3163 3161 3160 3158 3157 3155 3153 3151 3150 3149 3148 3148 3148 3147 3145 3143 3141 3140 3138 3136 3135 3134 3132 3131 3130 3128 3127 3126 3125 3124 3123 3123 3122 3121 3120 3120 3119 3119 3118 3118 3118 3117 3116 3116 3115 3115 3114 3114
3181 3180 3179 3179 3178 3178 3178 3178 3178 3178 3179 3178 3176 3176 3175 3175 3175 3174 3174 3173 3173 3172 3172 3172 3171 3171 3170 3169 3168 3168 3167 3167 3166 3165 3164 3163 3162 3160 3159 3157 3155 3154 3153 3151 3148 3146 3145 3144 3143 3143 3142 3142 3140 3138 3136 3134 3133 3131 3130 3128 3127 3126 3125 3123 3122 3120 3118 3117 3116 3116 3116 3116 3115 3114 3114 3113 3113 3113 3112 3111 3110 3109 3109 3108 3107
3178 3177 3177 3176 3175 3174 3174 3173 3174 3175 3175 3174 3173 3172 3172 3171 3172 3172 3171 3171 3170 3169 3169 3169 3169 3169 3168 3167 3166 3166 3165 3165 3164 3162 3161 3160 3159 3158 3156 3155 3153 3151 3149 3148 3145 3143 3140 3139 3139 3138 3137 3136 3136 3135 3133 3131 3130 3128 3126 3124 3123 3122 3120 3119 3118 3116 3114 3112 3110 3110 3110 3110 3110 3109 3109 3108 3108 3107 3106 3105 3104 3103 3102 3102 3101
3177 3176 3176 3174 3171 3170 3169 3168 3169 3169 3170 3170 3169 3169 3169 3168 3169 3169 3168 3168 3168 3167 3167 3167 3167 3166 3165 3164 3163 3163 3162 3162 3161 3160 3159 3157 3156 3155 3154 3152 3151 3148 3146 3144 3142 3139 3137 3134 3133 3134 3133 3131 3131 3130 3129 3127 3125 3124 3122 3120 3119 3117 3116 3114 3113 3112 3110 3108 3106 3104 3103 3103 3104 3103 3103 3103 3102 3101 3100 3099 3097 3096 3096 3096 3095
3175 3174 3172 3169 3167 3166 3165 3164 3164 3164 3164 3164 3164 3165 3165 3165 3165 3165 3165 3165 3165 3165 3164 3164 3164 3163 3162 3161 3161 3160 3159 3159 3158 3157 3156 3155 3153 3152 3150 3148 3147 3144 3142 3140 3137 3135 3133 3131 3128 3129 3129 3128 3126 3125 3124 3123 3121 3119 3118 3116 3114 3113 3112 3110 3108 3107 3106 3104 3102 3100 3098 3097 3097 3096 3096 3096 3095 3095 3094 3093 3091 3090 3088 3088 3087
3170 3167 3164 3162 3161 3161 3160 3159 3159 3159 3159 3159 3160 3160 3161 3162 3162 3162 3162 3162 3162 3162 3162 3161 3161 3161 3160 3159 3158 3157 3156 3155 3154 3154 3153 3152 3150 3148 3147 3145 3143 3141 3139 3137 3135 3132 3130 3128 3126 3125 3124 3124 3123 3121 3120 3119 3117 3115 3113 3111 3109 3108 3107 3105 3103 3102 3100 3099 3096 3094 3092 3091 3090 3089 3089 3088 3088 3087 3086 3085 3084 3082 3080 3079 3079
3161 3159 3158 3157 3157 3156 3155 3154 3154 3154 3154 3154 3155 3156 3157 3157 3158 3158 3158 3159 3159 3159 3159 3158 3158 3158 3157 3156 3155 3154 3153 3152 3151 3149 3148 3147 3145 3144 3142 3141 3139 3138 3136 3135 3132 3129 3127 3125 3124 3122 3120 3119 3119 3117 3116 3115 3113 3110 3108 3106 3105 3103 3101 3100 3099 3097 3095 3094 3091 3089 3087 3086 3085 3083 3082 3081 3081 3080 3078 3077 3076 3075 3073 3071 3070
3154 3153 3153 3153 3153 3152 3152 3151 3150 3150 3150 3151 3152 3153 3153 3153 3153 3154 3154 3155 3155 3156 3155 3155 3154 3154 3154 3153 3152 3151 3149 3148 3147 3145 3144 3143 3141 3140 3138 3137 3136 3134 3132 3131 3129 3126 3123 3122 3121 3119 3117 3115 3114 3113 3112 3111 3109 3106 3103 3101 3100 3098 3096 3095 3094 3093 3091 3089 3086 3083 3082 3082 3080 3077 3076 3075 3073 3072 3070 3069 3068 3067 3065 3063 3060
3150 3150 3149 3149 3148 3148 3147 3147 3146 3146 3146 3148 3149 3149 3149 3149 3149 3150 3150 3150 3151 3151 3151 3151 3151 3150 3150 3149 3148 3147 3145 3144 3143 3142 3141 3140 3138 3136 3135 3134 3132 3131 3128 3126 3124 3122 3120 3118 3117 3116 3114 3111 3111 3109 3108 3106 3104 3102 3099 3097 3095 3093 3091 3090 3087 3086 3087 3084 3080 3078 3077 3077 3075 3072 3070 3068 3065 3064 3063 3061 3060 3058 3056 3054 3051
3146 3146 3145 3144 3143 3143 3142 3142 3141 3141 3142 3144 3145 3145 3145 3145 3144 3145 3146 3146 3146 3147 3147 3148 3147 3147 3146 3145 3144 3143 3142 3140 3139 3138 3137 3136 3135 3133 3132 3130 3128 3127 3125 3122 3120 3118 3115 3113 3112 3112 3110 3107 3106 3105 3104 3101 3099 3097 3094 3093 3091 3088 3085 3084 3082 3081 3081 3079 3075 3072 3071 3071 3069 3066 3063 3061 3059 3057 3055 3053 3051 3049 3046 3043 3041
3142 3142 3141 3140 3139 3138 3137 3137 3136 3136 3137 3138 3140 3140 3140 3140 3140 3140 3141 3142 3143 3144 3144 3144 3144 3143 3143 3142 3141 3140 3139 3137 3136 3135 3134 3132 3131 3130 3127 3125 3124 3123 3120 3118 3116 3114 3111 3109 3106 3105 3105 3103 3101 3100 3099 3097 3094 3091 3088 3087 3087 3084 3081 3079 3078 3076 3076 3075 3071 3067 3065 3065 3063 3058 3055 3054 3052 3049 3047 3044 3042 3040 3037 3034 3031
3138 3138 3137 3135 3134 3133 3133 3132 3131 3131 3132 3133 3134 3135 3135 3135 3136 3136 3138 3139 3140 3140 3140 3141 3141 3140 3139 3138 3137 3136 3135 3133 3132 3132 3130 3128 3127 3126 3123 3121 3120 3119 3116 3114 3113 3110 3108 3106 3103 3100 3099 3098 3096 3095 3094 3092 3089 3087 3083 3081 3081 3080 3077 3075 3073 3072 3071 3070 3067 3062 3058 3057 3056 3051 3047 3046 3044 3041 3039 3037 3035 3031 3027 3024 3022
3134 3133 3132 3131 3129 3129 3128 3127 3126 3127 3127 3128 3129 3130 3130 3132 3133 3133 3134 3135 3136 3136 3136 3137 3137 3136 3135 3134 3133 3132 3131 3129 3128 3127 3126 3124 3123 3121 3119 3117 3116 3115 3113 3111 3109 3107 3105 3103 3100 3097 3095 3093 3091 3090 3089 3087 3085 3083 3079 3076 3075 3075 3072 3070 3069 3067 3066 3064 3062 3057 3051 3049 3048 3044 3040 3039 3036 3033 3032 3030 3026 3022 3017 3014 3013
3129 3129 3127 3126 3125 3124 3123 3123 3122 3122 3123 3124 3125 3126 3127 3129 3130 3131 3132 3131 3131 3132 3133 3133 3133 3132 3132 3131 3129 3128 3127 3125 3124 3123 3121 3120 3118 3116 3115 3113 3112 3111 3109 3107 3105 3103 3101 3099 3096 3093 3091 3089 3088 3086 3085 3083 3080 3078 3074 3072 3071 3070 3067 3064 3063 3061 3060 3058 3057 3053 3046 3042 3042 3038 3033 3031 3029 3027 3025 3021 3017 3013 3009 3007 3005
3125 3125 3123 3122 3121 3120 3119 3118 3118 3118 3119 3120 3121 3123 3124 3126 3128 3129 3128 3128 3128 3128 3129 3129 3129 3128 3128 3127 3125 3124 3122 3120 3120 3119 3117 3115 3114 3112 3110 3109 3107 3106 3105 3103 3100 3098 3096 3095 3093 3090 3088 3086 3084 3083 3081 3079 3076 3073 3069 3067 3066 3065 3062 3059 3056 3055 3054 3053 3052 3050 3042 3037 3036 3032 3026 3024 3023 3020 3016 3012 3008 3004 3002 3001 2999
3122 3121 3119 3118 3116 3115 3114 3114 3114 3114 3115 3116 3118 3120 3122 3124 3126 3126 3125 3124 3124 3125 3125 3125 3124 3124 3123 3122 3121 3120 3118 3116 3115 3114 3113 3111 3110 3108 3106 3104 3103 3101 3100 3098 3096 3094 3091 3089 3087 3086 3084 3083 3081 3079 3077 3075 3072 3070 3066 3063 3062 3060 3057 3054 3051 3048 3047 3047 3047 3044 3037 3032 3031 3027 3022 3018 3015 3013 3008 3003 2999 2998 2996 2994 2993
3117 3116 3115 3113 3111 3110 3110 3110 3110 3111 3112 3114 3116 3118 3120 3122 3123 3122 3122 3121 3121 3122 3121 3121 3120 3119 3118 3117 3116 3115 3113 3111 3110 3109 3108 3107 3105 3103 3101 3100 3098 3097 3095 3094 3092 3090 3088 3085 3083 3081 3079 3078 3077 3075 3073 3071 3068 3066 3063 3060 3058 3056 3053 3050 3047 3044 3041 3041 3043 3039 3031 3026 3025 3023 3019 3012 3003 2999 2998 2995 2992 2991 2990 2989 2987